sat.trackr.live / text

‹ back to catalog

STARLINK-5118

NORAD 53991 · 2022-125AD

PAYLOAD ACTIVE UNKNOWN

§ Identity

Operator
Country
US
Launch date
2022-10-05
Launch site
AFWTR
Launch vehicle
Mass (kg)
RCS (m²)

Purposes: comms

External: N2YO · Heavens-Above · Gunter

§ Orbital elements

Epoch: 2026-05-25T04:49:49.053216Z

Period
95.44 min
Inclination
53.2146°
Eccentricity
0.0001012
Mean motion
15.08854965 rev/d
Perigee alt
539.0 km
Apogee alt
540.4 km
Semi-major
6,917.8 km
B*
-7.6066e-5
RAAN
220.5786°
Arg perigee
75.6656°
Mean anomaly
284.4449°
Rev number
20,114

§ Raw data

STARLINK-51181 53991U 22125AD  26145.20126219 -.00001499  00000+0 -76066-4 0  99932 53991  53.2146 220.5786 0001012  75.6656 284.4449 15.08854965201143

JSON: /api/v1/satellites/53991 · /tle

For live sub-satellite position, see the globe view (requires WebGL).

§ Visibility from observer

Set your observer location to see the next 7 days of passes ≥ 10°. The values pass through the URL so the page stays shareable.

No JS? Fill the form by hand. The geolocation button needs JavaScript.